This is the latest recevied weather packets stored in our database for station/object VR2OT-10. If no packets are shown the sender has not sent any weather packets the latest 1 day(s).
| Time | Temp. | Humidity | Pressure | Rain* | Wind** | Luminosity | Snow |
|---|---|---|---|---|---|---|---|
| 1836274185 | 25° C | 93% | 1007.5 hPa | - | 2.68 m/s, 270° | - | - |
| 1836274035 | 25° C | 94% | 1007.6 hPa | - | 1.34 m/s, 270° | - | - |
| 1778062638 | 23.33° C | 84% | 1011.3 hPa | - | 3.13 m/s, 90° | - | - |
| 1778061737 | 23.33° C | 84% | 1011.3 hPa | - | 3.13 m/s, 90° | - | - |
| 1778059037 | 23.33° C | 83% | 1011.3 hPa | - | 3.13 m/s, 135° | - | - |
| 1778058138 | 23.33° C | 83% | 1011.3 hPa | - | 3.13 m/s, 90° | - | - |
| 1778057238 | 23.33° C | 84% | 1011.3 hPa | - | 2.24 m/s, 135° | - | - |
| 1778056338 | 23.33° C | 83% | 1011.5 hPa | - | 4.02 m/s, 90° | - | - |
| 1778055438 | 22.78° C | 83% | 1011.5 hPa | - | 3.58 m/s, 90° | - | - |
| 1778054538 | 22.78° C | 84% | 1011.7 hPa | - | 3.13 m/s, 90° | - | - |
| 1778053637 | 22.78° C | 83% | 1011.8 hPa | - | 2.68 m/s, 90° | - | - |
| 1778052739 | 22.78° C | 84% | 1012 hPa | - | 3.58 m/s, 90° | - | - |
| 1778051838 | 22.78° C | 83% | 1012.1 hPa | - | 3.58 m/s, 90° | - | - |
| 1778050938 | 22.78° C | 82% | 1012.1 hPa | - | 4.02 m/s, 135° | - | - |
| 1778050038 | 22.78° C | 82% | 1012.2 hPa | - | 3.58 m/s, 90° | - | - |
| 1778049138 | 22.78° C | 83% | 1012.3 hPa | - | 3.58 m/s, 90° | - | - |
| 1778048237 | 22.78° C | 82% | 1012.3 hPa | - | 4.02 m/s, 90° | - | - |
| 1778047338 | 22.78° C | 82% | 1012.7 hPa | - | 2.68 m/s, 90° | - | - |
| 1778046437 | 22.78° C | 83% | 1012.8 hPa | - | 3.13 m/s, 90° | - | - |
| 1778045537 | 22.78° C | 82% | 1013 hPa | - | 3.58 m/s, 135° | - | - |
| 1778044638 | 22.78° C | 82% | 1013.1 hPa | - | 3.13 m/s, 135° | - | - |
| 1778043738 | 22.78° C | 81% | 1013.2 hPa | - | 4.02 m/s, 90° | - | - |
| 1778042837 | 22.78° C | 81% | 1013.3 hPa | - | 3.13 m/s, 135° | - | - |
| 1778041939 | 22.78° C | 82% | 1013.5 hPa | - | 3.58 m/s, 90° | - | - |
| 1778041038 | 22.78° C | 84% | 1013.6 hPa | - | 4.02 m/s, 135° | - | - |
* Rain since midnight (hover to see other rain measurements)
** Current wind speed in m/s (hover to see current wind gust speed)